Skip Page Navigation
NASA JPL Caltech
NASA Logo - Jet Propulsion Laboratory + View the NASA Portal
+ Center for Near-Earth Object Studies
JPL Home Earth Solar System Stars & Galaxies Technology
JPL Solar System Dynamics
BODIES ORBITS EPHEMERIDES TOOLS PHYSICAL DATA DISCOVERY FAQ SITE MAP
JPL Small-Body Database Browser
Search: [ help ]  
72363 (2001 BQ79)
Classification: Main-belt Asteroid          SPK-ID: 2072363
Ephemeris | Orbit Diagram | Orbital Elements | Mission Design | Physical Parameters | Discovery Circumstances | Close-Approach Data ]

[ show orbit diagram ]
Orbital Elements at Epoch 2459200.5 (2020-Dec-17.0) TDB
Reference: JPL 24 (heliocentric ecliptic J2000)
 Element Value Uncertainty (1-sigma)   Units 
e .187650898439839 4.0313e-08  
a 2.401444871177712 8.734e-09 au
q 1.950811583547471 9.6061e-08 au
i 2.846290525580482 4.2273e-06 deg
node 152.7218336637563 7.3516e-05 deg
peri 229.9511559287673 7.4086e-05 deg
M 221.583980520011 9.3221e-06 deg
tp 2459723.126243265225
(2022-May-23.62624327)
3.6361e-05 TDB
period 1359.275091729405
3.72
7.4154e-06
2.03e-08
d
yr
n .2648470513367329 1.4449e-09 deg/d
Q 2.852078158807954 1.0373e-08 au
  Orbit Determination Parameters
   # obs. used (total)      868  
   data-arc span      8502 days (23.28 yr)  
   first obs. used      1997-01-12  
   last obs. used      2020-04-23  
   planetary ephem.      DE441  
   SB-pert. ephem.      SB441-N16  
   condition code      0  
   norm. resid. RMS      .53277  
   source      ORB  
   producer      Otto Matic  
   solution date      2021-Apr-13 13:01:39  

Additional Information
 Earth MOID = .954036 au 
 Jupiter MOID = 2.60569 au 
 T_jup = 3.500 
[ show covariance matrix ]

Ephemeris | Orbit Diagram | Orbital Elements | Mission Design | Physical Parameters | Discovery Circumstances | Close-Approach Data ]

Physical Parameter Table
Parameter Symbol Value Units Sigma Reference Notes
absolute magnitude H 15.81   n/a E2021B10  

72363 (2001 BQ79)          Discovered 2001-Jan-21 by LINEAR at Socorro
Reference: 20031109/Numbers.arcLast Updated: 2004-04-19

[ show close-approach data ]
Alternate Designations
 2001 BQ79 = 1999 RM10 = 2001 DS104 
Ephemeris | Orbit Diagram | Orbital Elements | Mission Design | Physical Parameters | Discovery Circumstances | Close-Approach Data ]
ABOUT SSD CREDITS/AWARDS PRIVACY/COPYRIGHT GLOSSARY LINKS
FirstGov 2021-Jun-15 03:59 UT
(server date/time)  
NASA Home Page
Site Manager:   Ryan S. Park
Webmaster  Alan B. Chamberlin